FW8234 Weather Reports


time (UTC)temp
C
wind
direction
speed
KPH
gust
KPH
rain 1hr
cm
rain 24hr
cm
rain mn
cm
humidity
%
barometer
mb
20260507041045 20 0 0.0 0.0 0.00 2.34 2.34 88 1021.0
20260507040544 20 0 0.0 0.0 0.00 2.34 2.34 88 1020.9
20260507040056 20 0 0.0 0.0 0.00 2.34 2.34 88 1020.8
20260507035541 20 0 0.0 0.0 0.00 2.34 2.34 88 1020.9
20260507035044 20 0 0.0 0.0 0.00 2.34 2.34 88 1020.8
20260507034555 20 0 0.0 0.0 0.00 2.34 2.34 89 1020.6
20260507034044 20 0 0.0 0.0 0.00 2.34 2.34 89 1020.6
20260507033542 20 0 0.0 0.0 0.00 2.34 2.34 89 1020.6
20260507033056 20 0 0.0 0.0 0.00 2.34 2.34 89 1020.4
20260507032540 20 0 0.0 0.0 0.00 2.34 2.34 89 1020.3
20260507032044 20 0 0.0 0.0 0.00 2.34 2.34 89 1020.3
20260507031552 20 0 0.0 0.0 0.00 2.34 2.34 89 1020.3
20260507031041 20 0 0.0 0.0 0.00 2.34 2.34 89 1020.3
20260507030544 20 0 0.0 0.0 0.00 2.34 2.34 88 1020.4
20260507025540 20 0 0.0 0.0 0.00 2.34 2.34 89 1020.3
20260507025044 20 0 0.0 0.0 0.00 2.34 2.34 89 1020.3
20260507024557 20 0 0.0 0.0 0.00 2.34 2.34 89 1020.2
20260507024042 20 0 0.0 0.0 0.00 2.34 2.34 90 1020.2
20260507023541 20 0 0.0 0.0 0.00 2.34 2.34 90 1020.0
20260507023108 20 0 0.0 0.0 0.00 2.34 2.34 90 1020.0
20260507022538 20 0 0.0 0.0 0.00 2.34 2.34 91 1019.8
20260507022041 20 0 0.0 0.0 0.00 2.34 2.34 90 1019.8
20260507021550 20 0 0.0 0.0 0.00 2.34 2.34 91 1019.8
20260507021041 20 0 0.0 0.0 0.00 2.34 2.34 91 1019.9
20260507020541 20 0 0.0 0.0 0.00 2.34 2.34 91 1019.9
20260507020047 20 0 0.0 0.0 0.00 2.34 2.34 92 1019.9
20260507015541 20 0 0.0 0.0 0.00 2.34 2.34 92 1019.9
20260507015038 20 0 0.0 0.0 0.00 2.34 2.34 93 1019.9
20260507014558 20 0 0.0 0.0 0.00 2.34 2.34 93 1020.0
20260507014041 20 0 0.0 0.0 0.00 2.34 2.34 94 1019.9
20260507013539 19 0 0.0 0.0 0.00 2.34 2.34 94 1020.0
20260507013112 19 0 0.0 0.0 0.00 2.34 2.34 95 1019.9
20260507012539 19 0 0.0 0.0 0.00 2.34 2.34 95 1019.8
20260507012041 19 0 0.0 0.0 0.00 2.34 2.34 95 1019.7
20260507011552 19 0 0.0 0.0 0.00 2.34 2.34 95 1019.6
20260507011039 19 0 0.0 0.0 0.00 2.34 2.34 96 1019.6
20260507010542 19 0 0.0 0.0 0.00 2.34 2.34 96 1019.6
20260507010044 19 0 0.0 0.0 0.00 2.34 2.34 96 1019.3
20260507005542 19 0 0.0 0.0 0.00 2.34 2.34 96 1019.3
20260507005039 19 0 0.0 0.0 0.00 2.34 2.34 96 1019.4
20260507004550 19 0 0.0 0.0 0.00 2.34 2.34 96 1019.3
20260507004040 19 0 0.0 0.0 0.00 2.34 2.34 96 1019.3
20260507003541 19 0 0.0 0.0 0.00 2.34 2.34 96 1019.3
20260507003047 19 0 0.0 0.0 0.00 2.34 2.34 96 1019.3
20260507002541 19 0 0.0 0.0 0.03 2.34 2.34 96 1019.4
20260507002038 19 0 0.0 0.0 0.03 2.34 2.34 96 1019.4
20260507001607 19 0 0.0 0.0 0.05 2.34 2.34 96 1019.2
20260507001043 19 0 0.0 0.0 0.15 2.34 2.34 96 1018.9
20260507000541 19 0 0.0 0.0 1.04 2.34 2.34 96 1019.2
20260507000049 19 0 0.0 0.0 1.98 2.34 2.34 96 1019.4
20260506235539 19 0 0.0 0.0 2.34 2.34 2.34 96 1019.4
20260506235041 19 0 0.0 0.0 2.34 2.34 2.34 95 1019.1
20260506234546 19 0 0.0 0.0 2.34 2.34 2.34 94 1019.1
20260506234043 20 0 0.0 0.0 2.34 2.34 2.34 94 1019.0
20260506233542 20 0 0.0 0.0 2.34 2.34 2.34 94 1018.9
20260506233135 20 0 0.0 0.0 2.34 2.34 2.34 93 1018.6
20260506232543 20 0 0.0 0.0 2.31 2.31 2.31 93 1018.8
20260506232041 21 0 0.0 1.6 2.31 2.31 2.31 94 1018.6
20260506231554 21 0 0.0 1.6 2.29 2.29 2.29 93 1018.1
20260506231038 22 0 0.0 0.0 2.16 2.16 2.16 91 1018.4
20260506230540 22 0 0.0 0.0 1.22 1.22 1.22 93 1018.9
20260506230051 23 0 0.0 0.0 0.28 0.28 0.28 93 1018.7
20260506225708 23 0 0.0 0.0 0.00 0.00 0.00 92 1017.9
20260506225111 23 0 0.0 0.0 0.00 0.00 0.00 90 1017.5
20260506225041 23 0 0.0 0.0 0.00 0.00 0.00 90 1017.5
20260506224550 23 0 0.0 0.0 0.00 0.00 0.00 88 1016.9
20260506224211 23 0 0.0 0.0 0.00 0.00 0.00 88 1017.2
20260506222059 25 0 0.0 0.0 0.00 0.00 0.00 85 1017.4
20260506222054 25 0 0.0 0.0 0.00 0.00 0.00 85 1017.3
20260506121554 20 0 0.0 0.0 0.00 0.00 0.00 84 1018.8
20260506121041 20 0 0.0 0.0 0.00 0.00 0.00 85 1018.8
20260506120541 19 0 0.0 0.0 0.00 0.00 0.00 85 1018.8
20260506120051 19 0 0.0 0.0 0.00 0.00 0.00 86 1018.7
20260506115540 19 0 0.0 0.0 0.00 0.00 0.00 86 1018.7
20260506115040 19 0 0.0 0.0 0.00 0.00 0.00 86 1018.7
20260506114553 19 0 0.0 0.0 0.00 0.00 0.00 86 1018.6
20260506114043 19 0 0.0 0.0 0.00 0.00 0.00 86 1018.4
20260506113543 19 0 0.0 0.0 0.00 0.00 0.00 86 1018.4
20260506113050 19 0 0.0 0.0 0.00 0.00 0.00 86 1018.4
20260506112540 19 0 0.0 0.0 0.00 0.00 0.00 86 1018.5
20260506112039 19 0 0.0 0.0 0.00 0.00 0.00 86 1018.5
20260506111602 19 0 0.0 0.0 0.00 0.00 0.00 86 1018.4
20260506111042 19 0 0.0 0.0 0.00 0.00 0.00 87 1018.4
20260506110540 19 0 0.0 0.0 0.00 0.00 0.00 87 1018.2
20260506110045 19 0 0.0 0.0 0.00 0.00 0.00 87 1018.2
20260506105544 19 0 0.0 0.0 0.00 0.00 0.00 87 1018.3
20260506105042 19 0 0.0 0.0 0.00 0.00 0.00 87 1018.3
20260506104545 19 0 0.0 0.0 0.00 0.00 0.00 87 1018.2
20260506104042 19 0 0.0 0.0 0.00 0.00 0.00 87 1018.1
20260506103543 19 0 0.0 0.0 0.00 0.00 0.00 87 1018.1
20260506103044 19 0 0.0 0.0 0.00 0.00 0.00 88 1018.1
20260506102542 19 0 0.0 0.0 0.00 0.00 0.00 88 1018.1
20260506102044 19 0 0.0 0.0 0.00 0.00 0.00 88 1018.1
20260506101549 19 0 0.0 0.0 0.00 0.00 0.00 88 1018.0
20260506101044 19 0 0.0 0.0 0.00 0.00 0.00 88 1018.0
20260506100541 19 0 0.0 0.0 0.00 0.00 0.00 87 1017.9
20260506100049 19 0 0.0 0.0 0.00 0.00 0.00 87 1018.0
20260506095540 19 0 0.0 0.0 0.00 0.00 0.00 87 1018.0
20260506095042 19 0 0.0 0.0 0.00 0.00 0.00 87 1017.9
20260506094550 19 0 0.0 0.0 0.00 0.00 0.00 87 1018.0
20260506094040 19 0 0.0 0.0 0.00 0.00 0.00 87 1018.0
20260506093542 19 0 0.0 0.0 0.00 0.00 0.00 88 1018.0
20260506093055 19 0 0.0 0.0 0.00 0.00 0.00 89 1017.9
20260506092541 19 0 0.0 0.0 0.00 0.00 0.00 89 1018.0
20260506092046 19 0 0.0 0.0 0.00 0.00 0.00 90 1018.0
20260506091545 19 0 0.0 0.0 0.00 0.00 0.00 91 1018.0
20260506091042 18 0 0.0 0.0 0.00 0.00 0.00 91 1018.1
20260506090546 19 0 0.0 0.0 0.00 0.00 0.00 91 1018.1
20260506090050 19 0 0.0 0.0 0.00 0.00 0.00 92 1018.2
20260506085543 19 0 0.0 0.0 0.00 0.00 0.00 92 1018.3
20260506085043 19 0 0.0 0.0 0.00 0.00 0.00 92 1018.3
20260506084549 19 0 0.0 0.0 0.00 0.00 0.00 92 1018.4
20260506084042 19 0 0.0 0.0 0.00 0.00 0.00 92 1018.5
20260506083543 19 0 0.0 0.0 0.00 0.00 0.00 92 1018.6
20260506083108 19 0 0.0 0.0 0.00 0.00 0.00 92 1018.7
20260506082542 19 0 0.0 0.0 0.00 0.00 0.00 92 1018.8
20260506082039 19 0 0.0 0.0 0.00 0.00 0.00 92 1018.8
20260506081551 19 0 0.0 0.0 0.00 0.00 0.00 92 1018.8
20260506081041 19 0 0.0 0.0 0.00 0.00 0.00 93 1018.7
20260506080543 19 0 0.0 0.0 0.00 0.00 0.00 93 1018.8
20260506073054 20 0 0.0 0.0 0.00 0.00 0.00 94 1019.3
20260506072543 20 0 0.0 0.0 0.00 0.00 0.00 94 1019.3
20260506072043 19 0 0.0 0.0 0.00 0.00 0.00 94 1019.3
20260506071554 19 0 0.0 0.0 0.00 0.00 0.00 94 1019.3
20260506071040 19 0 0.0 0.0 0.00 0.00 0.00 94 1019.3
20260506070542 19 0 0.0 0.0 0.00 0.00 0.00 94 1019.4
20260506070105 19 0 0.0 0.0 0.00 0.00 0.00 94 1019.4
20260506062041 19 0 0.0 0.0 0.00 0.00 0.00 92 1019.6
20260506061550 19 0 0.0 0.0 0.00 0.00 0.00 92 1019.6
20260506061042 19 0 0.0 0.0 0.00 0.00 0.00 92 1019.6
20260506060543 20 0 0.0 0.0 0.00 0.00 0.00 92 1019.7
20260506051042 20 0 0.0 0.0 0.00 0.00 0.00 94 1020.2
20260506050542 20 0 0.0 0.0 0.00 0.00 0.00 94 1020.2
20260506045041 20 0 0.0 0.0 0.00 0.00 0.00 94 1020.3
20260506044546 20 0 0.0 0.0 0.00 0.00 0.00 94 1020.3
20260506044041 20 0 0.0 0.0 0.00 0.00 0.00 94 1020.3
20260506043547 20 0 0.0 0.0 0.00 0.00 0.00 94 1020.2
20260506043056 20 0 0.0 0.0 0.00 0.00 0.00 93 1020.2
20260506042543 21 0 0.0 0.0 0.00 0.00 0.00 93 1020.2
20260506042042 21 0 0.0 0.0 0.00 0.00 0.00 93 1020.2
20260506041557 21 0 0.0 0.0 0.00 0.00 0.00 93 1020.2